464  
ASUS44 KOUN 190010  
RWROK  
 
WEATHER ROUNDUP FOR OKLAHOMA  
NATIONAL WEATHER SERVICE NORMAN OK  
700 PM CDT SAT AUG 18 2018  
 
NOTE: "FAIR" INDICATES FEW OR NO CLOUDS BELOW 12,000 FEET WITH NO  
SIGNIFICANT WEATHER AND/OR S TO VISIBILITY
.  
 
OKZ001>007-009>012-014-015-017-190100-  
NORTHWEST OKLAHOMA AND THE PANHANDLE  
 
CITY SKY/WX TMP DP RH WIND PRES REMARKS
 
GAGE CLOUDY 85 66 53 SE9 29.93F  
6HR MIN TEMP: 84; 6HR MAX TEMP: 90;  
 
GUYMON PTSUNNY 87 61 41 S9 29.93F  
ENID/WOODRING PTSUNNY 86 68 54 SE7 29.92F  

 
 
OKZ016-021>023-033>039-044-045-190100-  
SOUTHWEST OKLAHOMA  
 
CITY SKY/WX TMP DP RH WIND PRES REMARKS
 
LAWTON/REGL CLOUDY 87 70 56 E6 29.91F HX 92  
6HR MIN TEMP: 80; 6HR MAX TEMP: 92; 6HR PCP: TRACE;  
 
LAWTON/FT SILL CLOUDY 85 73 67 SE6 29.90F HX 91  
FREDERICK PTSUNNY 86 74 67 E13 29.89S HX 94  
CLINTON CLOUDY 84 70 62 SE10 29.94F  
HOBART CLOUDY 89 68 49 E9 29.92F HX 93  
ALTUS AFB SUNNY 88 68 51 SE7 N/A HX 91  

 
 
OKZ018>020-024>031-190100-  
CENTRAL OKLAHOMA  
 
CITY SKY/WX TMP DP RH WIND PRES REMARKS
 
OKLAHOMA CITY CLOUDY 85 69 58 SE6 29.91F  
6HR MIN TEMP: 83; 6HR MAX TEMP: 89;  
 
OKC/WILEY POST MOSUNNY 86 69 56 E8 29.91F HX 90  
OKC/TINKER AFB PTSUNNY 83 72 68 E6 29.91F  
STILLWATER CLOUDY 85 64 49 E9 29.91F  
GUTHRIE CLOUDY 84 69 60 E7 29.90F  

 
 
OKZ008-013-054>072-190100-  
NORTHEAST OKLAHOMA  
 
CITY SKY/WX TMP DP RH WIND PRES REMARKS
 
TULSA MOSUNNY 88 68 51 E5 29.90F HX 91  
6HR MIN TEMP: 87; 6HR MAX TEMP: 90;  
 
PONCA CITY MOSUNNY 87 64 46 E7 29.91F  
BARTLESVILLE SUNNY 84 68 58 NE5 29.94F  
MUSKOGEE SUNNY 89 73 59 CALM 29.91F HX 97  

 
 
OKZ032-040>043-046>053-073>077-190100-  
SOUTH CENTRAL/SOUTHEAST OKLAHOMA  
 
CITY SKY/WX TMP DP RH WIND PRES REMARKS
 
ARDMORE/DWNTWN DRIZZLE 77 70 78 E3 29.89F  
MCALESTER SUNNY 86 73 65 NW7 29.92F HX 93  

 
 
 
 
CLICK HERE TO GO TO PREVIOUS BULLETINS.

The Nexlab OK Page Main Text Page